TimeEDT,TemperatureF,Dew PointF,Humidity,Sea Level PressureIn,VisibilityMPH,Wind Direction,Wind SpeedMPH,Gust SpeedMPH,PrecipitationIn,Events,Conditions,WindDirDegrees,DateUTC
12:15 AM,75.6,74.5,96,30.26,10.0,Calm,Calm,-,N/A,,Clear,0,2013-07-17 04:15:00
12:35 AM,75.4,73.9,95,30.26,10.0,Calm,Calm,-,N/A,,Clear,0,2013-07-17 04:35:00
12:55 AM,75.4,73.8,95,30.25,10.0,Calm,Calm,-,N/A,,Clear,0,2013-07-17 04:55:00
1:15 AM,75.4,73.4,94,30.26,10.0,Calm,Calm,-,N/A,,Clear,0,2013-07-17 05:15:00
1:35 AM,75.4,73.4,94,30.25,10.0,Calm,Calm,-,N/A,,Clear,0,2013-07-17 05:35:00
2:15 AM,74.7,73.6,96,30.25,10.0,Calm,Calm,-,N/A,,Clear,0,2013-07-17 06:15:00
2:35 AM,74.5,73.8,98,30.25,10.0,Calm,Calm,-,N/A,,Clear,0,2013-07-17 06:35:00
2:55 AM,74.7,73.9,98,30.25,10.0,Calm,Calm,-,N/A,,Clear,0,2013-07-17 06:55:00
3:15 AM,74.5,73.8,98,30.25,10.0,North,3.5,-,N/A,,Clear,350,2013-07-17 07:15:00
3:35 AM,74.3,73.6,98,30.25,10.0,Calm,Calm,-,N/A,,Clear,0,2013-07-17 07:35:00
3:55 AM,74.5,73.9,98,30.25,10.0,Calm,Calm,-,N/A,,Scattered Clouds,0,2013-07-17 07:55:00
4:15 AM,74.3,73.8,98,30.25,10.0,Calm,Calm,-,N/A,,Clear,0,2013-07-17 08:15:00
4:35 AM,74.5,73.9,98,30.25,10.0,Calm,Calm,-,N/A,,Clear,0,2013-07-17 08:35:00
4:55 AM,74.7,74.1,98,30.25,10.0,Calm,Calm,-,N/A,,Clear,0,2013-07-17 08:55:00
5:15 AM,74.5,73.9,98,30.25,10.0,Calm,Calm,-,N/A,,Scattered Clouds,0,2013-07-17 09:15:00
5:35 AM,74.3,73.6,98,30.25,7.0,Calm,Calm,-,N/A,,Scattered Clouds,0,2013-07-17 09:35:00
5:55 AM,73.9,73.4,98,30.26,7.0,Calm,Calm,-,N/A,,Clear,0,2013-07-17 09:55:00
6:15 AM,73.8,73.4,99,30.26,5.0,Calm,Calm,-,N/A,,Clear,0,2013-07-17 10:15:00
6:35 AM,73.8,73.4,99,30.27,5.0,Calm,Calm,-,N/A,,Clear,0,2013-07-17 10:35:00
6:55 AM,74.5,73.8,98,30.27,7.0,Calm,Calm,-,N/A,,Clear,0,2013-07-17 10:55:00
7:15 AM,74.7,73.8,97,30.27,10.0,Calm,Calm,-,N/A,,Clear,0,2013-07-17 11:15:00
7:35 AM,75.2,73.4,94,30.26,10.0,Calm,Calm,-,N/A,,Scattered Clouds,0,2013-07-17 11:35:00
7:55 AM,75.4,73.8,95,30.27,10.0,Calm,Calm,-,N/A,,Scattered Clouds,0,2013-07-17 11:55:00
8:15 AM,75.7,73.6,93,30.27,10.0,Calm,Calm,-,N/A,,Scattered Clouds,0,2013-07-17 12:15:00
8:35 AM,76.3,73.6,91,30.28,10.0,NNW,4.6,-,N/A,,Scattered Clouds,340,2013-07-17 12:35:00
8:55 AM,77.2,73.6,89,30.28,10.0,Calm,Calm,-,N/A,,Scattered Clouds,0,2013-07-17 12:55:00
9:15 AM,78.6,73.4,84,30.28,10.0,Calm,Calm,-,N/A,,Clear,0,2013-07-17 13:15:00
9:35 AM,79.5,73.8,82,30.29,10.0,NW,3.5,-,N/A,,Scattered Clouds,320,2013-07-17 13:35:00
9:55 AM,80.1,73.6,81,30.28,10.0,North,3.5,-,N/A,,Clear,350,2013-07-17 13:55:00
10:15 AM,80.8,73.9,80,30.28,10.0,Calm,Calm,-,N/A,,Clear,0,2013-07-17 14:15:00
10:35 AM,82.2,74.3,77,30.28,10.0,North,3.5,-,N/A,,Clear,10,2013-07-17 14:35:00
10:55 AM,83.1,74.8,76,30.28,10.0,Calm,Calm,-,N/A,,Clear,0,2013-07-17 14:55:00
11:15 AM,84.2,74.3,72,30.28,10.0,Calm,Calm,-,N/A,,Clear,0,2013-07-17 15:15:00
11:35 AM,85.1,74.3,70,30.28,10.0,Calm,Calm,-,N/A,,Scattered Clouds,0,2013-07-17 15:35:00
11:55 AM,84.7,75.2,73,30.27,10.0,Calm,Calm,-,N/A,,Mostly Cloudy,0,2013-07-17 15:55:00
12:15 PM,86.5,74.5,67,30.27,10.0,North,4.6,-,N/A,,Scattered Clouds,10,2013-07-17 16:15:00
12:35 PM,87.1,73.9,65,30.26,10.0,North,4.6,-,N/A,,Clear,350,2013-07-17 16:35:00
12:55 PM,87.1,74.5,66,30.26,10.0,North,4.6,-,N/A,,Clear,10,2013-07-17 16:55:00
1:15 PM,86.9,74.1,66,30.25,10.0,NNE,3.5,-,N/A,,Clear,20,2013-07-17 17:15:00
1:35 PM,88.3,74.1,63,30.24,10.0,ENE,3.5,-,N/A,,Clear,70,2013-07-17 17:35:00
1:55 PM,89.2,73.4,59,30.23,10.0,NNE,8.1,-,N/A,,Clear,20,2013-07-17 17:55:00
2:15 PM,88.7,73.9,62,30.23,10.0,North,5.8,-,N/A,,Clear,10,2013-07-17 18:15:00
2:35 PM,87.3,73.2,63,30.23,10.0,Calm,Calm,-,N/A,,Scattered Clouds,0,2013-07-17 18:35:00
2:55 PM,88.2,72.5,60,30.22,10.0,Calm,Calm,-,N/A,,Scattered Clouds,0,2013-07-17 18:55:00
3:15 PM,89.1,71.1,55,30.21,10.0,NE,3.5,-,N/A,,Scattered Clouds,50,2013-07-17 19:15:00
3:35 PM,88.9,72.9,59,30.21,10.0,Calm,Calm,-,N/A,,Clear,0,2013-07-17 19:35:00
3:55 PM,89.8,72.0,56,30.20,10.0,Calm,Calm,-,N/A,,Scattered Clouds,0,2013-07-17 19:55:00
4:15 PM,88.2,73.4,61,30.19,10.0,ENE,4.6,-,N/A,,Scattered Clouds,60,2013-07-17 20:15:00
4:35 PM,88.9,73.4,60,30.18,10.0,ENE,3.5,-,N/A,,Clear,70,2013-07-17 20:35:00
4:55 PM,87.8,72.7,61,30.18,10.0,East,3.5,-,N/A,,Clear,100,2013-07-17 20:55:00
5:15 PM,87.3,72.0,60,30.19,10.0,SSW,5.8,-,N/A,,Scattered Clouds,200,2013-07-17 21:15:00
5:35 PM,82.6,72.3,71,30.19,10.0,SW,6.9,-,N/A,,Scattered Clouds,220,2013-07-17 21:35:00
5:55 PM,80.8,72.9,77,30.18,10.0,SSW,4.6,-,N/A,,Scattered Clouds,210,2013-07-17 21:55:00
6:15 PM,80.6,72.9,77,30.17,10.0,SW,4.6,-,N/A,,Clear,220,2013-07-17 22:15:00
6:35 PM,79.7,72.7,79,30.18,10.0,South,3.5,-,N/A,,Clear,190,2013-07-17 22:35:00
6:55 PM,79.2,72.7,80,30.18,10.0,Calm,Calm,-,N/A,,Clear,0,2013-07-17 22:55:00
7:15 PM,79.7,73.2,80,30.19,10.0,NW,3.5,-,N/A,,Clear,310,2013-07-17 23:15:00
7:35 PM,79.0,73.4,83,30.19,10.0,Calm,Calm,-,N/A,,Clear,0,2013-07-17 23:35:00
7:55 PM,78.4,73.8,85,30.21,10.0,Calm,Calm,-,N/A,,Clear,0,2013-07-17 23:55:00
8:15 PM,78.3,73.0,84,30.21,10.0,Calm,Calm,-,N/A,,Clear,0,2013-07-18 00:15:00
8:35 PM,77.4,73.8,89,30.21,10.0,Calm,Calm,-,N/A,,Clear,0,2013-07-18 00:35:00
8:55 PM,76.3,73.8,92,30.21,10.0,Calm,Calm,-,N/A,,Clear,0,2013-07-18 00:55:00
9:15 PM,75.7,73.6,93,30.20,10.0,Calm,Calm,-,N/A,,Clear,0,2013-07-18 01:15:00
9:35 PM,75.4,73.4,94,30.21,10.0,Calm,Calm,-,N/A,,Clear,0,2013-07-18 01:35:00
9:55 PM,75.6,73.4,93,30.21,10.0,Calm,Calm,-,N/A,,Clear,0,2013-07-18 01:55:00
10:15 PM,75.2,73.0,93,30.22,10.0,Calm,Calm,-,N/A,,Clear,0,2013-07-18 02:15:00
10:35 PM,75.6,73.2,92,30.22,10.0,Calm,Calm,-,N/A,,Clear,0,2013-07-18 02:35:00
10:55 PM,75.2,72.3,91,30.22,10.0,Calm,Calm,-,N/A,,Clear,0,2013-07-18 02:55:00
11:15 PM,74.3,73.0,96,30.22,7.0,Calm,Calm,-,N/A,,Clear,0,2013-07-18 03:15:00
11:35 PM,74.5,72.0,92,30.21,10.0,Calm,Calm,-,N/A,,Clear,0,2013-07-18 03:35:00
11:55 PM,73.4,72.5,97,30.20,7.0,Calm,Calm,-,N/A,,Clear,0,2013-07-18 03:55:00